Location: Newark
(48.6676°N, 6.1917°E)
Time: 05:26:47
(UTC+00:00)

N. Korean satellite - Pass Details

Date: 12 December 2019
Orbit: 454 x 508 km, 97.2° (Epoch: 20 January)

Event Time Altitude Azimuth Distance (km) Brightness Sun altitude
Rises 05:41:52 0° 11° (N) 2,551 10.2 -15.0°
Reaches altitude 10° 05:43:57 10° 9° (N) 1,657 9.2 -14.7°
Maximum altitude 05:47:30 74° 284° (WNW) 494 6.4 -14.1°
Drops below altitude 10° 05:50:57 10° 200° (SSW) 1,614 9.2 -13.6°
Sets 05:52:58 0° 198° (SSW) 2,477 10.2 -13.3°
